Location: Bellflower
(33.8817°N, 118.1170°W)
Time: 12:00:13
(UTC+00:00)

Cosmos 2184 Rocket - Pass Details

Date: 23 November 2020
Orbit: 958 x 1003 km, 82.9° (Epoch: 21 January)

Event Time Altitude Azimuth Distance (km) Brightness Sun altitude
Rises 13:30:04 0° 177° (S) 3,655 7.3 -13.0°
Reaches altitude 10° 13:32:34 10° 175° (S) 2,718 6.6 -12.5°
Maximum altitude 13:38:45 69° 93° (E) 1,054 4.4 -11.3°
Drops below altitude 10° 13:45:02 10° 12° (NNE) 2,763 6.3 -10.1°
Sets 13:47:35 0° 10° (N) 3,721 7.0 -9.6°
